PCSAT (NO-44) (26931 NORAD) Tracking and Keplerian Element Data

This shows tracking and keplerian element data for the satellite.

Feedback or suggestion? Click here.




ElementValue
Catalog26931
NamePCSAT (NO-44)
Epoch Orbit16378
Epoch Day13.15607307
Epoch Year2024
RAAN14.6003
Inclination67.0515
Eccentricity0.0005345
Argument of Perigee265.8517
Mean Anonmoly94.1974
Mean Motion14.31090912
Decay Rate3.96E-06
L11 26931U 01043C 24013.15607307 .00000396 00000+0 18148-3 0 9990
L22 26931 67.0515 14.6003 0005345 265.8517 94.1974 14.31090912163781



Live tracking and technical data element details for PCSAT (NO-44) (NORAD 26931). PCSAT (NO-44) can be tracked NOW for your location showing map with azimuth and elevation plus other details from your city location.







IsCatalogInMostPopularTable: catalog: 26931, numindb: 1304
Update: records affected: 1



GetName: 26931 PCSAT (NO-44)

Hit Count: updated at: Sat, 20 Apr 2024 10:53:32 GMT